Regional Weather Roundup
Issued by NWS

Home | Current Version | Previous Version | Graphics & Text | Print | Product List | Glossary On
Versions: 1 2 3 4 5 6 7 8 9 10 11 12 13 14 15 16 17 18 19 20 21 22 23 24 25 26 27 28 29 30 31 32 33 34 35 36 37 38 39 40 41 42 43 44 45 46 47 48 49 50
000
ASUS43 KLOT 271010
RWRIL

ILLINOIS REGIONAL WEATHER ROUNDUP
NATIONAL WEATHER SERVICE CHICAGO/ROMEOVILLE IL
400 AM CST THU NOV 27 2014

NOTE: "FAIR" INDICATES FEW OR NO CLOUDS BELOW 12,000 FEET WITH NO
SIGNIFICANT WEATHER AND/OR OBSTRUCTIONS TO VISIBILITY.

* THESE STATIONS ARE NOT UNDER NWS QUALITY CONTROL. THEY ALSO MAY NOT
  REPORT WEATHER SUCH AS PRECIPITATION OR FOG.

ILZ001-002-007-009-015-016-024-271100-
NORTHWEST ILLINOIS

CITY           SKY/WX    TMP DP  RH WIND       PRES   REMARKS
MOLINE         CLOUDY    26  20  77 NW10      30.34R WCI  16
STERLING*      FAIR      21  18  86 NW7       30.30R WCI  13
SAVANNA*       CLOUDY    25  20  81 NW7       30.31S WCI  17
$$

ILZ003-004-008-010-011-017-018-271100-
NORTH CENTRAL ILLINOIS

CITY           SKY/WX    TMP DP  RH WIND       PRES   REMARKS
ROCKFORD       CLOUDY    20  16  84 NW9       30.29R FOG     WCI   9
FREEPORT*      CLOUDY    21  19  89 NW8       30.29S WCI  12
ROCHELLE*      CLOUDY    22  19  89 NW7       30.27S FOG     WCI  13
DE KALB*       CLOUDY    19  17  89 NW10      30.25R FOG     WCI   8
PERU*          CLOUDY    23  20  87 NW12      30.30R FOG     WCI  12
$$

ILZ005-006-012>014-019>023-271100-
NORTHEAST ILLINOIS

CITY           SKY/WX    TMP DP  RH WIND       PRES   REMARKS
CHICAGO-OHARE  CLOUDY    23  17  78 NW10      30.23R WCI  12
CHICAGO-MIDWAY CLOUDY    26  18  71 NW12      30.23R WCI  16
AURORA         CLOUDY    22  16  78 NW8       30.26R HAZE    WCI  12
LANSING*       CLOUDY    28  24  84 NW7       30.22S WCI  21
JOLIET*        CLOUDY    22  17  83 NW3       30.25S FOG
WAUKEGAN       CLOUDY    22  17  81 NW7       30.22S WCI  13
DUPAGE AIRPORT CLOUDY    20  16  84 NW8       30.23S WCI  10
KANKAKEE*      CLOUDY   N/A N/A N/A W12       30.25R
WHEELING       CLOUDY    22  17  81 NW9       30.25S WCI  12
MORRIS*        CLOUDY    22  20  91 W6        30.26S FOG     WCI  14
ROMEOVILLE*    CLOUDY    22  18  85 N7        30.25R WCI  14
NORTHERLY ISL    N/A     27  19  72 W6          N/A  WCI  21
$$

LMZ740>746-271100-
SOUTHERN LAKE MICHIGAN

STATION/POSITION SKY/WX   TEMP    WIND        PRES    VSBY  WAVE
                          AIR SEA DIR/SP/G                  HT/PER
                          (F)     (DEG/KT/KT) (MB)    (MI)  (FT/S)
SOUTHERN BUOY              32 42  320/ 17/ 21 1022.8R         4/ 5
WAUKEGAN HARBOR            22     310/ 11/ 14   N/A
HARRISON CRIB              26     310/ 15/ 19   N/A
BURNHAM HARBOR             27     300/  6/ 13   N/A
CALUMET HARBOR             27     290/  9/ 14 1022.2R
MICHIGAN CITY              32     300/ 22/ 25   N/A
$$

ILZ025>027-034>036-040-047-049-050-058-095>099-271100-
WEST-CENTRAL ILLINOIS

CITY           SKY/WX    TMP DP  RH WIND       PRES   REMARKS
QUINCY         CLOUDY    28  24  85 NW9       30.38R FOG     WCI  19
GALESBURG*     CLOUDY    23  22  96 W7        30.34R FOG     WCI  14
MACOMB*        CLOUDY    26  24  94 NW9       30.38R FOG     WCI  16
JACKSONVILLE*  CLOUDY    26  22  84 W7        30.36R WCI  19
PITTSFIELD*    CLOUDY    28  25  87 NW6       30.38R WCI  22
$$

ILZ028>032-037-038-041>044-048-051>054-059>061-271100-
CENTRAL ILLINOIS

CITY           SKY/WX    TMP DP  RH WIND       PRES   REMARKS
PONTIAC        CLOUDY    23  21  91 NW10      30.29R FOG     WCI  12
BLOOMINGTON    PTCLDY    23  19  85 NW12      30.29R WCI  12
DECATUR        CLOUDY    23  19  85 NW12      30.30R WCI  12
PEORIA         CLOUDY    25  19  78 NW7       30.32R WCI  17
LACON*         CLOUDY    23  19  83 NW8       30.31S FOG     WCI  14
LINCOLN*       CLOUDY    25  21  86 W6        30.33S WCI  18
SPRINGFIELD    CLOUDY    24  19  81 NW7       30.34R WCI  16
TAYLORVILLE    PTCLDY    23  19  86 N10       30.32S WCI  12
$$

ILZ033-039-045-046-055>057-062-063-271100-
EAST-CENTRAL ILLINOIS

CITY           SKY/WX    TMP DP  RH WIND       PRES   REMARKS
CHAMPAIGN      MOCLDY    22  19  89 NW8       30.27R FOG     WCI  12
DANVILLE*      CLOUDY    24  22  89 NW9       30.22R WCI  15
RANTOUL*       CLOUDY    27  24  89 NW8       30.26R FOG     WCI  18
MATTOON        CLEAR     22  19  89 NW10      30.26R WCI  11
PARIS*         CLEAR     24  22  91 NW9       30.26R WCI  15
$$

ILZ079-100>102-271100-
SOUTHWEST ILLINOIS

CITY           SKY/WX    TMP DP  RH WIND       PRES   REMARKS
ALTON          CLOUDY    28  25  88 NW10      30.36R WCI  19
BELLEVILLE     CLOUDY    30  29  98 NW16      30.34R WCI  18
CAHOKIA*       CLOUDY    31  27  85 NW12      30.36R WCI  22
SPARTA*        CLOUDY    30  28  92 NW8       30.34R WCI  23
$$

ILZ064>066-069>071-074>076-080>082-084>086-088>090-092>094-271100-
SOUTH-CENTRAL ILLINOIS

CITY           SKY/WX    TMP DP  RH WIND       PRES   REMARKS
CARBONDALE     CLOUDY    32  29  88 NW14      30.31R FOG     WCI  22
CAIRO*         CLOUDY    38  33  81 NW15      30.30R WCI  30
EFFINGHAM*     CLOUDY    27  21  79 NW10      30.29R WCI  17
MARION         LGT SNOW  34  32  93 NW7       30.31R WCI  28
MT. VERNON     CLOUDY    28  23  80 CALM      30.30R
CENTRALIA*     CLOUDY    28  26  89 N10       30.31R WCI  19
SALEM*           N/A     30  26  84 N8        30.31R WCI  22
METROPOLIS*    CLOUDY    36  36 100 NW10G16     N/A  WCI  28
$$

ILZ067-068-072-073-078-083-087-091-271100-
SOUTHEAST ILLINOIS

CITY           SKY/WX    TMP DP  RH WIND       PRES   REMARKS
LAWRENCEVILLE  CLOUDY    29  26  89 NW9       30.26R WCI  20
FLORA*         PTCLDY    28  25  89 NW7       30.30R WCI  20
FAIRFIELD*     MIX PCPN  30  28  92 NW5       30.28R WCI  25
HARRISBURG*    CLOUDY    32  32  99 N8        30.30R WCI  25
ROBINSON*      CLOUDY    29  24  81 N15G21    30.27R WCI  18
CARMI*         CLOUDY    33  32  99 N8        30.27R WCI  25
$$

ABBREVIATIONS USED IN REMARKS
   TC - TEMPERATURE IN CELSIUS
  WCI - WIND CHILL INDEX
   HX - HEAT INDEX
  VSB - VISIBILITY
$$



USA.gov is the U.S. government's official web portal to all federal, state and local government web resources and services.